Regional Weather Roundup
Issued by NWS

Home | Current Version | Previous Version | Graphics & Text | Print | Product List | Glossary On
Versions: 1 2 3 4 5 6 7 8 9 10 11 12 13 14 15 16 17 18 19 20 21 22 23 24 25 26 27 28 29 30 31 32 33 34 35 36 37 38 39 40 41 42 43 44 45 46 47 48 49 50
000
ASUS43 KLOT 201800
RWRIL

ILLINOIS REGIONAL WEATHER ROUNDUP
NATIONAL WEATHER SERVICE CHICAGO/ROMEOVILLE IL
100 PM CDT WED AUG 20 2014

NOTE: "FAIR" INDICATES FEW OR NO CLOUDS BELOW 12,000 FEET WITH NO
SIGNIFICANT WEATHER AND/OR OBSTRUCTIONS TO VISIBILITY.

* THESE STATIONS ARE NOT UNDER NWS QUALITY CONTROL. THEY ALSO MAY NOT
  REPORT WEATHER SUCH AS PRECIPITATION OR FOG.

ILZ001-002-007-009-015-016-024-201900-
NORTHWEST ILLINOIS

CITY           SKY/WX    TMP DP  RH WIND       PRES   REMARKS
MOLINE         CLOUDY    79  68  69 SE3       29.90F HX  81
6HR MIN TEMP:  63; 6HR MAX TEMP:  79;

STERLING*      PTSUNNY   82  70  65 W9        29.92F HX  86
$$

ILZ003-004-008-010-011-017-018-201900-
NORTH CENTRAL ILLINOIS

CITY           SKY/WX    TMP DP  RH WIND       PRES   REMARKS
ROCKFORD       PTSUNNY   84  66  54 W12       29.92S HX  86
6HR MIN TEMP:  63; 6HR MAX TEMP:  84;

ROCHELLE*      MOSUNNY   82  65  57 W10       29.92F HX  84
$$

ILZ005-006-012>014-019>023-201900-
NORTHEAST ILLINOIS

CITY           SKY/WX    TMP DP  RH WIND       PRES   REMARKS
CHICAGO-OHARE  PTSUNNY   83  64  52 SW12G20   29.91S HX  84
6HR MIN TEMP:  68; 6HR MAX TEMP:  83;

CHICAGO-MIDWAY PTSUNNY   84  68  58 SW14G22   29.91F HX  87
6HR MIN TEMP:  70; 6HR MAX TEMP:  84;

AURORA         MOSUNNY   84  65  52 SW9       29.92F HX  86
6HR MIN TEMP:  61; 6HR MAX TEMP:  84;

WAUKEGAN       MOSUNNY   81  64  56 SW9       29.90R HX  82
6HR MIN TEMP:  65; 6HR MAX TEMP:  83;

DUPAGE AIRPORT MOSUNNY   85  67  54 W16G23    29.92S HX  87
6HR MIN TEMP:  65; 6HR MAX TEMP:  85;

WHEELING       MOSUNNY   84  66  54 SW10G17   29.91F HX  86
6HR MIN TEMP:  68; 6HR MAX TEMP:  84;

NORTHERLY ISL    N/A     81  63  54 SW14        N/A  HX  82
$$

LMZ740>746-201900-
SOUTHERN LAKE MICHIGAN

STATION/POSITION SKY/WX   TEMP    WIND        PRES    VSBY  WAVE
                          AIR SEA DIR/SP/G                  HT/PER
                          (F)     (DEG/KT/KT) (MB)    (MI)  (FT/S)
SOUTHERN BUOY              69 69  240/  2/  4 1012.4R         0
WAUKEGAN HARBOR            80     230/ 14/ 18   N/A
HARRISON CRIB              79     240/ 11/ 15   N/A
BURNHAM HARBOR             81     260/ 10/ 12   N/A
CALUMET HARBOR             81     230/ 11/ 15 1012.0R
BURNS HARBOR               81     230/ 16/ 21   N/A
MICHIGAN CITY              73     240/  4/  4   N/A
MICHIGAN CITY 6N           74 73   CALM  /  2   N/A           1
ST. JOSEPH                 71 71  230/  8/ 10   N/A           1/ 2
$$

ILZ025>027-034>036-040-047-049-050-058-095>099-201900-
WEST-CENTRAL ILLINOIS

CITY           SKY/WX    TMP DP  RH WIND       PRES   REMARKS
QUINCY         CLOUDY    80  72  76 SE8       29.95F HX  84
MACOMB*        CLOUDY    70  70 100 S6        29.97R
$$

ILZ028>032-037-038-041>044-048-051>054-059>061-201900-
CENTRAL ILLINOIS

CITY           SKY/WX    TMP DP  RH WIND       PRES   REMARKS
DECATUR        CLOUDY    71  68  90 S9        29.98R
PEORIA         CLOUDY    76  68  76 SW7       29.94F
6HR MIN TEMP:  67; 6HR MAX TEMP:  77; 6HR PCP:  0.03;

SPRINGFIELD    CLOUDY    73  70  90 SW8       30.01R
6HR MIN TEMP:  68; 6HR MAX TEMP:  75; 6HR PCP:  2.14;

TAYLORVILLE    NOT AVBL
$$

ILZ033-039-045-046-055>057-062-063-201900-
EAST-CENTRAL ILLINOIS

CITY           SKY/WX    TMP DP  RH WIND       PRES   REMARKS
CHAMPAIGN      LGT RAIN  71  70  96 S12       29.98F
MATTOON        RAIN      69  67  93 S6        29.99F
$$

ILZ079-100>102-201900-
SOUTHWEST ILLINOIS

CITY           SKY/WX    TMP DP  RH WIND       PRES   REMARKS
ALTON          CLOUDY    77  73  88 E14       30.00R
BELLEVILLE     MOSUNNY   84  75  74 VRB5G24   29.98S HX  92
CAHOKIA*       CLOUDY    88  74  63 S5        29.97F HX  96
$$

ILZ064>066-069>071-074>076-080>082-084>086-088>090-092>094-201900-
SOUTH-CENTRAL ILLINOIS

CITY           SKY/WX    TMP DP  RH WIND       PRES   REMARKS
CARBONDALE     CLOUDY    85  74  69 VRB3      29.99R HX  92
6HR MIN TEMP:  68; 6HR MAX TEMP:  86;

MARION         PTSUNNY   86  75  70 CALM      30.01R HX  95
MT. VERNON     CLOUDY    79  72  78 N12       30.03R HX  82
SALEM*         CLOUDY    75  70  83 NE9       30.02F
$$

ILZ067-068-072-073-078-083-087-091-201900-
SOUTHEAST ILLINOIS

CITY           SKY/WX    TMP DP  RH WIND       PRES   REMARKS
LAWRENCEVILLE  LGT RAIN  77  73  87 W7        30.02F
HARRISBURG*    CLOUDY    85  77  75 NW5       30.01R HX  95
ROBINSON*      RAIN      76  74  94 W8        30.04R
$$

ABBREVIATIONS USED IN REMARKS
   TC - TEMPERATURE IN CELSIUS
  WCI - WIND CHILL INDEX
   HX - HEAT INDEX
  VSB - VISIBILITY
$$



USA.gov is the U.S. government's official web portal to all federal, state and local government web resources and services.